Volver al catálogo

CZ-3C DEB

ActivoGTO
NORAD 39346·DEBRIS·🇨🇳 China

Lanzado Oct 31, 2010 desde Xichang Satellite Launch Center

Loading…

TLE

EnvejeciendoSource: Space-Track

Época: Sep 14, 2026, 16:23 UTC

1 39346U 10057L   26257.68317694  .00000155  00000-0  49661-2 0  9993
2 39346  20.0424 138.1630 7198842  77.5603 348.2343  2.17977988102893

Sigue CZ-3C DEB en tiempo real con AllMySat

Download on the App Store